| time (UTC) | temp C | wind direction | speed KPH | gust KPH | rain 1hr cm | rain 24hr cm | rain mn cm | humidity % | barometer mb |
| 20260510220041 | 13 | 312 | 6.4 | 12.9 | 0.00 | 0.00 | 0.00 | 38 | 1018.5 |
| 20260510214537 | 13 | 285 | 3.2 | 19.3 | 0.00 | 0.00 | 0.00 | 39 | 1018.3 |
| 20260510213037 | 13 | 264 | 3.2 | 11.3 | 0.00 | 0.00 | 0.00 | 38 | 1018.2 |
| 20260510211538 | 14 | 328 | 8.0 | 20.9 | 0.00 | 0.00 | 0.00 | 36 | 1018.0 |
| 20260510210034 | 14 | 277 | 8.0 | 12.9 | 0.00 | 0.00 | 0.00 | 34 | 1017.8 |
| 20260510204535 | 14 | 255 | 8.0 | 14.5 | 0.00 | 0.00 | 0.00 | 36 | 1017.8 |
| 20260510203033 | 14 | 336 | 6.4 | 16.1 | 0.00 | 0.00 | 0.00 | 38 | 1017.8 |
| 20260510201533 | 14 | 328 | 4.8 | 17.7 | 0.00 | 0.00 | 0.00 | 36 | 1018.0 |
| 20260510200037 | 14 | 302 | 9.7 | 17.7 | 0.00 | 0.00 | 0.00 | 34 | 1018.1 |
| 20260510194537 | 13 | 279 | 4.8 | 14.5 | 0.00 | 0.00 | 0.00 | 35 | 1018.3 |
| 20260510193042 | 14 | 279 | 4.8 | 20.9 | 0.00 | 0.00 | 0.00 | 37 | 1018.4 |
| 20260510191534 | 14 | 244 | 6.4 | 16.1 | 0.00 | 0.00 | 0.00 | 33 | 1018.4 |
| 20260510190044 | 13 | 249 | 4.8 | 14.5 | 0.00 | 0.00 | 0.00 | 34 | 1018.6 |
| 20260510184533 | 13 | 293 | 6.4 | 14.5 | 0.00 | 0.20 | 0.00 | 36 | 1018.6 |
| 20260510183041 | 13 | 276 | 6.4 | 17.7 | 0.00 | 0.20 | 0.00 | 37 | 1018.3 |
| 20260510181534 | 13 | 240 | 11.3 | 24.1 | 0.00 | 0.20 | 0.00 | 35 | 1018.1 |
| 20260510180032 | 12 | 311 | 4.8 | 19.3 | 0.00 | 0.20 | 0.00 | 36 | 1018.1 |
| 20260510174540 | 13 | 356 | 8.0 | 17.7 | 0.00 | 0.20 | 0.00 | 36 | 1018.0 |
| 20260510173043 | 12 | 261 | 8.0 | 19.3 | 0.00 | 0.20 | 0.00 | 37 | 1018.1 |
| 20260510171536 | 13 | 329 | 9.7 | 17.7 | 0.00 | 0.20 | 0.00 | 37 | 1018.2 |
| 20260510170045 | 13 | 271 | 8.0 | 12.9 | 0.00 | 0.20 | 0.00 | 41 | 1018.2 |
| 20260510164539 | 12 | 288 | 8.0 | 16.1 | 0.00 | 0.20 | 0.00 | 38 | 1018.3 |
| 20260510163035 | 12 | 308 | 6.4 | 17.7 | 0.00 | 0.20 | 0.00 | 39 | 1018.1 |
| 20260510161533 | 12 | 299 | 12.9 | 27.4 | 0.00 | 0.20 | 0.00 | 38 | 1018.2 |
| 20260510160035 | 12 | 263 | 12.9 | 22.5 | 0.00 | 0.20 | 0.00 | 38 | 1018.2 |
| 20260510154538 | 12 | 266 | 11.3 | 24.1 | 0.00 | 0.20 | 0.00 | 41 | 1018.0 |
| 20260510153034 | 12 | 293 | 9.7 | 19.3 | 0.00 | 0.20 | 0.00 | 39 | 1017.8 |
| 20260510151538 | 11 | 338 | 8.0 | 19.3 | 0.00 | 0.20 | 0.00 | 42 | 1017.6 |
| 20260510150037 | 11 | 243 | 8.0 | 16.1 | 0.00 | 0.20 | 0.00 | 42 | 1017.5 |
| 20260510144548 | 11 | 281 | 4.8 | 14.5 | 0.00 | 0.20 | 0.00 | 46 | 1017.3 |
| 20260510143033 | 11 | 278 | 4.8 | 14.5 | 0.00 | 0.20 | 0.00 | 46 | 1017.2 |
| 20260510141537 | 10 | 333 | 6.4 | 12.9 | 0.00 | 0.20 | 0.00 | 45 | 1017.2 |
| 20260510140038 | 10 | 345 | 4.8 | 9.7 | 0.00 | 0.20 | 0.00 | 51 | 1017.0 |
| 20260510134532 | 9 | 127 | 3.2 | 12.9 | 0.00 | 0.20 | 0.00 | 53 | 1016.9 |
| 20260510133033 | 9 | 242 | 3.2 | 9.7 | 0.00 | 0.20 | 0.00 | 55 | 1016.9 |
| 20260510131540 | 9 | 0 | 3.2 | 11.3 | 0.00 | 0.20 | 0.00 | 55 | 1017.0 |
| 20260510130037 | 9 | 355 | 1.6 | 6.4 | 0.00 | 0.20 | 0.00 | 57 | 1016.7 |
| 20260510124538 | 8 | 80 | 1.6 | 9.7 | 0.00 | 0.20 | 0.00 | 59 | 1016.6 |
| 20260510123034 | 8 | 329 | 3.2 | 8.0 | 0.00 | 0.20 | 0.00 | 59 | 1016.4 |
| 20260510121532 | 8 | 0 | 0.0 | 3.2 | 0.00 | 0.20 | 0.00 | 61 | 1016.3 |
| 20260510120038 | 7 | 65 | 1.6 | 4.8 | 0.00 | 0.20 | 0.00 | 63 | 1016.1 |
| 20260510114532 | 5 | 59 | 0.0 | 1.6 | 0.00 | 0.20 | 0.00 | 69 | 1015.7 |
| 20260510113037 | 4 | 0 | 0.0 | 1.6 | 0.00 | 0.20 | 0.00 | 71 | 1015.6 |
| 20260510111546 | 3 | 0 | 0.0 | 1.6 | 0.00 | 0.20 | 0.00 | 73 | 1015.4 |
| 20260510110032 | 2 | 0 | 0.0 | 0.0 | 0.00 | 0.20 | 0.00 | 76 | 1015.2 |
| 20260510104538 | 2 | 0 | 0.0 | 0.0 | 0.00 | 0.20 | 0.00 | 75 | 1015.2 |
| 20260510103032 | 2 | 0 | 0.0 | 0.0 | 0.00 | 0.20 | 0.00 | 74 | 1014.9 |
| 20260510101534 | 3 | 0 | 0.0 | 0.0 | 0.00 | 0.20 | 0.00 | 72 | 1014.8 |
| 20260510100036 | 3 | 0 | 0.0 | 1.6 | 0.00 | 0.20 | 0.00 | 75 | 1014.7 |
| 20260510094539 | 3 | 0 | 0.0 | 0.0 | 0.00 | 0.20 | 0.00 | 73 | 1014.5 |
| 20260510093033 | 5 | 0 | 0.0 | 0.0 | 0.00 | 0.20 | 0.00 | 70 | 1014.3 |
| 20260510091534 | 5 | 0 | 0.0 | 1.6 | 0.00 | 0.20 | 0.00 | 67 | 1014.3 |
| 20260510090035 | 6 | 274 | 0.0 | 4.8 | 0.00 | 0.20 | 0.00 | 66 | 1014.0 |
| 20260510084532 | 6 | 291 | 1.6 | 6.4 | 0.00 | 0.20 | 0.00 | 66 | 1013.7 |
| 20260510083035 | 6 | 0 | 0.0 | 6.4 | 0.00 | 0.20 | 0.00 | 66 | 1013.3 |
| 20260510081537 | 7 | 12 | 3.2 | 8.0 | 0.00 | 0.20 | 0.00 | 66 | 1013.0 |
| 20260510080034 | 7 | 336 | 3.2 | 8.0 | 0.00 | 0.20 | 0.00 | 64 | 1012.5 |
| 20260510074541 | 7 | 342 | 0.0 | 6.4 | 0.00 | 0.20 | 0.00 | 63 | 1012.3 |
| 20260510073040 | 7 | 34 | 4.8 | 11.3 | 0.00 | 0.20 | 0.00 | 63 | 1012.0 |
| 20260510071536 | 7 | 274 | 0.0 | 3.2 | 0.00 | 0.20 | 0.00 | 67 | 1011.6 |
| 20260510070047 | 7 | 24 | 3.2 | 8.0 | 0.00 | 0.20 | 0.00 | 68 | 1011.3 |
| 20260510064544 | 8 | 321 | 0.0 | 1.6 | 0.00 | 0.20 | 0.00 | 67 | 1011.2 |
| 20260510063041 | 8 | 0 | 1.6 | 4.8 | 0.00 | 0.20 | 0.00 | 64 | 1011.1 |
| 20260510061540 | 9 | 23 | 1.6 | 8.0 | 0.00 | 0.20 | 0.00 | 66 | 1011.0 |
| 20260510060049 | 8 | 0 | 0.0 | 9.7 | 0.00 | 0.20 | 0.00 | 68 | 1010.9 |
| 20260510054537 | 8 | 0 | 0.0 | 0.0 | 0.00 | 0.20 | 0.00 | 68 | 1010.8 |
| 20260510053036 | 9 | 0 | 0.0 | 0.0 | 0.00 | 0.20 | 0.00 | 67 | 1010.5 |
| 20260510051601 | 10 | 309 | 0.0 | 1.6 | 0.00 | 0.20 | 0.00 | 66 | 1010.0 |
| 20260510050040 | 10 | 0 | 0.0 | 1.6 | 0.00 | 0.20 | 0.00 | 66 | 1009.8 |
| 20260510044538 | 10 | 0 | 0.0 | 1.6 | 0.00 | 0.20 | 0.00 | 66 | 1009.5 |
| 20260510043049 | 10 | 0 | 0.0 | 0.0 | 0.00 | 0.20 | 0.00 | 64 | 1009.3 |
| 20260510041537 | 11 | 0 | 0.0 | 1.6 | 0.00 | 0.20 | 0.00 | 62 | 1009.0 |
| 20260510040042 | 11 | 0 | 0.0 | 1.6 | 0.00 | 0.20 | 0.00 | 59 | 1008.9 |
| 20260510034532 | 12 | 353 | 0.0 | 3.2 | 0.00 | 0.20 | 0.20 | 57 | 1008.9 |
| 20260510033041 | 12 | 309 | 0.0 | 6.4 | 0.00 | 0.20 | 0.20 | 56 | 1008.6 |
| 20260510031605 | 13 | 0 | 0.0 | 3.2 | 0.00 | 0.20 | 0.20 | 54 | 1008.4 |
| 20260510030038 | 13 | 265 | 1.6 | 8.0 | 0.00 | 0.20 | 0.20 | 53 | 1008.2 |
| 20260510024545 | 14 | 328 | 3.2 | 9.7 | 0.00 | 0.20 | 0.20 | 51 | 1008.1 |
| 20260510023043 | 14 | 311 | 4.8 | 16.1 | 0.00 | 0.20 | 0.20 | 50 | 1007.8 |
| 20260510021544 | 15 | 338 | 8.0 | 17.7 | 0.00 | 0.20 | 0.20 | 49 | 1007.4 |
| 20260510020042 | 16 | 302 | 6.4 | 16.1 | 0.00 | 0.20 | 0.20 | 48 | 1007.0 |
| 20260510014541 | 16 | 311 | 8.0 | 17.7 | 0.00 | 0.20 | 0.20 | 50 | 1006.4 |
| 20260510013038 | 16 | 288 | 4.8 | 16.1 | 0.00 | 0.20 | 0.20 | 53 | 1005.7 |
| 20260510011543 | 16 | 279 | 0.0 | 3.2 | 0.00 | 0.20 | 0.20 | 54 | 1005.2 |
| 20260510010050 | 16 | 302 | 1.6 | 8.0 | 0.00 | 0.20 | 0.20 | 55 | 1004.9 |
| 20260510004542 | 16 | 0 | 0.0 | 3.2 | 0.00 | 0.20 | 0.20 | 51 | 1004.4 |
| 20260510003038 | 17 | 231 | 1.6 | 8.0 | 0.00 | 0.20 | 0.20 | 48 | 1004.2 |
| 20260510001537 | 18 | 292 | 3.2 | 12.9 | 0.00 | 0.20 | 0.20 | 46 | 1004.0 |
| 20260510000037 | 18 | 224 | 6.4 | 16.1 | 0.00 | 0.20 | 0.20 | 45 | 1003.8 |
| 20260509234536 | 18 | 279 | 8.0 | 22.5 | 0.00 | 0.20 | 0.20 | 43 | 1003.9 |
| 20260509233041 | 19 | 285 | 12.9 | 25.7 | 0.00 | 0.20 | 0.20 | 43 | 1003.7 |
| 20260509231546 | 19 | 146 | 12.9 | 27.4 | 0.00 | 0.20 | 0.20 | 41 | 1003.6 |
| 20260509230040 | 19 | 309 | 9.7 | 30.6 | 0.00 | 0.20 | 0.20 | 41 | 1003.6 |
| 20260509224537 | 20 | 8 | 16.1 | 35.4 | 0.00 | 0.20 | 0.20 | 41 | 1003.6 |
| 20260509223037 | 20 | 273 | 9.7 | 35.4 | 0.00 | 0.20 | 0.20 | 39 | 1003.4 |
| 20260509221539 | 20 | 242 | 20.9 | 45.1 | 0.00 | 0.20 | 0.20 | 38 | 1003.2 |